Papa, Hungary

6:22 AM CEST on May 25, 2017 (GMT +0200)
Papa

Weather History for LHPA - May, 2013

Change the Weather History Date:

Friday, May 10, 2013

  Actual Average Record
Temperature  
Mean Temperature 64 °F -  
Max Temperature 77 °F - - ()
Min Temperature 50 °F - - ()
Degree Days  
Heating Degree Days 2    
Growing Degree Days 14 (Base 50)    
Moisture  
Dew Point 51 °F    
Average Humidity 62    
Maximum Humidity 88    
Minimum Humidity 39    
Precipitation  
Precipitation 0.00 in - - ()
Sea Level Pressure  
Sea Level Pressure 29.91 in    
Wind  
Wind Speed 7 mph ()    
Max Wind Speed 18 mph    
Max Gust Speed 31 mph    
Visibility 6.0 miles    
Events Rain , Thunderstorm    
T = Trace of Precipitation, MM = Missing Value Source: Averaged Metar Reports

Daily Weather History Graph

Daily Weather History Graph

Search for Another Location

Airport or City:

Trip Planner

Search our weather history database for the weather conditions in past years. The results will help you decide how hot, cold, wet, or windy it might be!

Date:

Astronomy

May. 10, 2013 Rise Set
Actual Time 5:20 AM CEST 8:13 PM CEST
Civil Twilight 4:45 AM CEST 8:48 PM CEST
Nautical Twilight 3:59 AM CEST 9:34 PM CEST
Astronomical Twilight 3:06 AM CEST 10:28 PM CEST
Moon 5:32 AM CEST (5/10) 8:47 PM CEST (5/10)
Length of Visible Light 16h 03m
Length of Day
14h 52m
New Moon, 0% of the Moon is Illuminated
May 10
New Moon
May 18
First Quarter
May 25
Full
May 31
Last Quarter
Jun 8
New

Hourly Weather History & Observations

Time (CEST) Temp. Dew Point Humidity Pressure Visibility Wind Dir Wind Speed Gust Speed Precip Events Conditions
12:15 AM 57.2 °F 48.2 °F 72% 30.01 in - SE 4.5 mph - N/A   Clear
12:45 AM 57.2 °F 44.6 °F 63% 29.98 in - SE 4.5 mph - N/A   Clear
1:15 AM 57.2 °F 44.6 °F 63% 29.98 in - SSE 6.7 mph - N/A   Clear
1:45 AM 59.0 °F 44.6 °F 59% 29.98 in - SSE 6.7 mph - N/A   Clear
2:15 AM 59.0 °F 44.6 °F 59% 29.95 in - South 4.5 mph - N/A   Clear
2:45 AM 57.2 °F 44.6 °F 63% 29.95 in - SE 6.7 mph - N/A   Clear
3:45 AM - - N/A% - 6.2 mi SSE 6.7 mph - N/A   Clear
4:15 AM 50.0 °F 44.6 °F 82% 29.95 in - WNW 2.2 mph - N/A   Clear
4:45 AM 51.8 °F 46.4 °F 82% 29.95 in - Calm Calm - N/A   Clear
5:15 AM 50.0 °F 46.4 °F 87% 29.92 in - ESE 2.2 mph - N/A   Clear
5:45 AM 51.8 °F 46.4 °F 82% 29.92 in - SE 4.5 mph - N/A   Clear
7:15 AM 60.8 °F 51.8 °F 72% 29.95 in - Calm Calm - N/A   Clear
7:45 AM 64.4 °F 51.8 °F 64% 29.95 in - East 2.2 mph - N/A   Clear
8:15 AM 68.0 °F 53.6 °F 60% 29.95 in - SE 2.2 mph - N/A   Clear
8:45 AM 68.0 °F 50.0 °F 52% 29.95 in - SSE 11.2 mph - N/A   Clear
9:15 AM 69.8 °F 50.0 °F 49% 29.92 in - SE 13.4 mph - N/A   Clear
9:45 AM - - N/A% - 6.2 mi SSE 11.2 mph - N/A   Clear
10:15 AM 71.6 °F 48.2 °F 43% 29.92 in - SE 15.7 mph - N/A   Clear
10:45 AM 71.6 °F 46.4 °F 41% 29.92 in - SE 15.7 mph - N/A   Clear
11:15 AM 73.4 °F 50.0 °F 44% 29.92 in - SE 13.4 mph - N/A   Clear
11:45 AM 73.4 °F 50.0 °F 44% 29.92 in - SSE 13.4 mph - N/A   Clear
12:15 PM 75.2 °F 53.6 °F 47% 29.89 in - SSE 11.2 mph - N/A   Clear
12:45 PM - - N/A% - 6.2 mi SSE 11.2 mph - N/A   Clear
1:15 PM 75.2 °F 50.0 °F 41% 29.89 in - SSE 13.4 mph - N/A   Clear
1:45 PM 77.0 °F 50.0 °F 39% 29.89 in - South 13.4 mph - N/A   Clear
2:15 PM 77.0 °F 51.8 °F 41% 29.86 in - South 11.2 mph - N/A   Clear
2:45 PM 77.0 °F 55.4 °F 47% 29.86 in - SSE 13.4 mph - N/A   Clear
3:15 PM 77.0 °F 51.8 °F 41% 29.86 in - South 11.2 mph - N/A   Clear
3:45 PM - - N/A% - 3.1 mi South 11.2 mph - N/A Rain , Thunderstorm Rain Showers
4:45 PM 77.0 °F 51.8 °F 41% 29.83 in - South 6.7 mph - N/A   Clear
5:15 PM 77.0 °F 53.6 °F 44% 29.83 in 6.2 mi South 8.9 mph - N/A   Partly Cloudy
5:45 PM 77.0 °F 53.6 °F 44% 29.83 in 6.2 mi SSW 8.9 mph - N/A   Scattered Clouds
6:45 PM - - N/A% - 6.2 mi Variable 4.5 mph - N/A   Clear
7:15 PM 73.4 °F 55.4 °F 53% 29.83 in 6.2 mi SE 4.5 mph - N/A   Scattered Clouds
7:45 PM 69.8 °F 55.4 °F 60% 29.83 in 6.2 mi NNW 6.7 mph - N/A   Scattered Clouds
7:56 PM 68.0 °F 55.4 °F 64% 29.86 in 6.2 mi NW 15.7 mph 31.3 mph N/A   Scattered Clouds
8:37 PM 62.6 °F 57.2 °F 82% 29.89 in 6.2 mi NW 13.4 mph - N/A Rain Light Rain Showers
8:45 PM 62.6 °F 57.2 °F 82% 29.89 in 6.2 mi NNW 15.7 mph - N/A Rain Light Rain Showers
9:15 PM 60.8 °F 55.4 °F 82% 29.92 in 6.2 mi NNW 15.7 mph - N/A Rain Light Rain Showers
9:45 PM - - N/A% - 6.2 mi NNW 13.4 mph - N/A   Mostly Cloudy
9:48 PM 59.0 °F 55.4 °F 88% 29.92 in 6.2 mi NW 13.4 mph - N/A   Mostly Cloudy
10:15 PM 59.0 °F 55.4 °F 88% 29.92 in 6.2 mi NW 17.9 mph - N/A   Mostly Cloudy
10:45 PM 59.0 °F 53.6 °F 82% 29.95 in 6.2 mi NW 15.7 mph - N/A   Mostly Cloudy
11:15 PM 59.0 °F 53.6 °F 82% 29.95 in 6.2 mi NW 11.2 mph - N/A   Mostly Cloudy
11:45 PM 57.2 °F 53.6 °F 88% 29.95 in 6.2 mi NNW 8.9 mph - N/A   Mostly Cloudy